Regional Weather Roundup
Issued by NWS

Home | Current Version | Previous Version | Graphics & Text | Print | Product List | Glossary On
Versions: 1 2 3 4 5 6 7 8 9 10 11 12 13 14 15 16 17 18 19 20 21 22 23 24 25 26 27 28 29 30 31 32 33 34 35 36 37 38 39 40 41 42 43 44 45 46 47 48 49 50
000
ASUS43 KMPX 252310
RWRMN
WEATHER ROUNDUP FOR MINNESOTA
NATIONAL WEATHER SERVICE TWIN CITIES/CHANHASSEN MN
500 PM CST SUN JAN 25 2015


NOTE: "FAIR" INDICATES FEW OR NO CLOUDS BELOW 12,000 FEET WITH NO
SIGNIFICANT WEATHER AND/OR OBSTRUCTIONS TO VISIBILITY. N/A MEANS
CURRENT SKY AND/OR WEATHER CONDITIONS ARE NOT AVAILABLE.

MNZ060>063-068>070-260000-
   Twin Cities Metro

CITY           SKY/WX    TMP DP  RH WIND       PRES   REMARKS
TWIN CITIES    PTCLDY    26  10  50 CALM      30.05R
ST PAUL        CLEAR     24  11  57 SE5       30.07R WCI  18
CRYSTAL        CLEAR     27  12  53 SE3       30.03R
BLAINE         CLEAR     27  14  59 CALM      30.04R
LAKEVILLE      CLEAR     21  16  79 CALM      30.04R
EDEN PRAIRIE   CLEAR     26  11  52 CALM      30.04R
SOUTH ST PAUL  CLEAR     25  13  60 CALM      30.05R
LAKE ELMO      FAIR      25  12  58 CALM      30.05R
$$
MNZ001>005-007-008-013>017-022>024-027-028-260000-
   Northwest Minnesota

CITY           SKY/WX    TMP DP  RH WIND       PRES   REMARKS
BEMIDJI        MOCLDY    27  18  70 S8        29.94S WCI  18
HALLOCK        CLOUDY    19  14  79 S12       29.95F WCI   7
ROSEAU         CLOUDY    19  12  73 SW5       29.97R WCI  13
WARROAD        CLOUDY    18  10  73 CALM      29.96F
THIEF RVR FALL CLOUDY    19  12  73 SW5       29.98R WCI  13
CROOKSTON      CLOUDY    23  18  80 S8        29.99R WCI  14
FOSSTON        CLOUDY    21  18  86 SW7       29.97R WCI  13
DETROIT LAKES  MOCLDY    28  21  74 SW7       29.97S WCI  21
MOORHEAD       CLOUDY    27  19  74 SW8       30.00S WCI  18
PARK RAPIDS    CLOUDY    28  19  69 S7        29.94F WCI  21
MAHNOMEN       FAIR      25  18  76 SW9       29.96R WCI  15
$$
MNZ006-009>011-018-025>026-260000-
   North Central Minnesota

CITY           SKY/WX    TMP DP  RH WIND       PRES   REMARKS
BAUDETTE       CLOUDY    19  11  70 CALM      29.95R
FLAG ISLAND    CLOUDY    12   9  85 S15       29.93F WCI  -4
INTL FALLS     CLOUDY    19   9  65 CALM      29.97S
WASKISH        CLOUDY    19  14  79 CALM      29.96R
BIG FORK       CLOUDY    23  14  68 S5        29.97S WCI  17
LONGVILLE      MOCLDY    25  16  68 S3        29.98F
GRAND RAPIDS   PTCLDY    21  12  68 SE5       29.98F WCI  15
CRANE LAKE     CLOUDY    19   9  63 CALM      30.01F
ORR            CLOUDY    21  10  63 CALM      29.95F
COOK           CLOUDY    21  12  68 S6        29.98F WCI  14
WALKER         CLOUDY    26  16  68 S6        29.96F WCI  19
$$
MNZ012-019>021-037-260000-
   Northeast Minnesota

CITY           SKY/WX    TMP DP  RH WIND       PRES   REMARKS
DULUTH         FLURRIES  20  13  74 E5        29.99S WCI  13
ELY            MOCLDY    18   7  62 S3        30.00R
HIBBING        CLOUDY    22  12  65 S3        29.99S
EVELETH        MOCLDY    21  12  68 SW3       30.01S
DULUTH HARBOR  CLOUDY    23  14  68 CALM      30.06S
TWO HARBORS    LGT SNOW  21  16  79 NE5       30.01S WCI  15
SILVER BAY     LGT SNOW  18  14  86 CALM      30.02S
GRAND MARAIS     N/A     16   8  71 CALM      30.08S
G MARAIS ARPRT PTCLDY     7   0  72 S3        29.98F
$$
MNZ029>031-032-039>041-046>048-054>057-064-260000-
   West Central Minnesota

CITY           SKY/WX    TMP DP  RH WIND       PRES   REMARKS
FERGUS FALLS   MOCLDY    23  19  86 W6        30.02F WCI  16
WHEATON        MOCLDY    25  18  74 CALM      30.03F
MORRIS         CLOUDY    27  23  86 SW5       30.00F WCI  21
ALEXANDRIA     CLOUDY    26  21  81 S7        29.99F WCI  18
ELBOW LAKE     CLOUDY    24  22  93 SW7       29.99F WCI  16
WADENA         PTCLDY    27  19  74 SE6       29.96F WCI  20
GLENWOOD       CLOUDY    27  23  86 S3        30.00F
APPLETON       CLOUDY    28  25  86 W3        30.02F
BENSON         MOCLDY    28  25  86 CALM      30.02F
ORTONVILLE     PTCLDY    27  19  74 S3        30.01F
MADISON        PTCLDY    30  27  86 CALM      30.02F
WILLMAR        CLOUDY    28  21  74 CALM      30.04F
$$
MNZ033>034-036-042>043-049>051-058-059-260000-
   Central Minnesota

CITY           SKY/WX    TMP DP  RH WIND       PRES   REMARKS
ST CLOUD       CLEAR     26  15  63 CALM      30.03R
SAUK CENTRE    CLOUDY    26  21  81 S3        30.01F
PAYNESVILLE    CLOUDY    24  20  83 CALM      30.03F
AITKIN         PTCLDY    27  16  63 CALM      30.00S
PINE RIVER     CLEAR     23  16  74 E6        30.01F WCI  16
BRAINERD       PTCLDY    24  14  65 SE3       30.00F
STAPLES        CLOUDY    25  18  74 S7        29.98F WCI  17
LONG PRAIRIE   CLOUDY    27  19  74 CALM      30.00F
LITTLE FALLS   CLEAR     27  14  59 CALM      30.03S
LITCHFIELD     CLOUDY    27  19  74 CALM      30.04S
BUFFALO        CLEAR     25  15  63 CALM      30.05R
MAPLE LAKE     CLEAR     26  18  72 CALM      30.05R
$$
MNZ037-044-045-052-053-260000-
   East Central Minnesota

CITY           SKY/WX    TMP DP  RH WIND       PRES   REMARKS
PRINCETON      CLEAR     25  16  68 CALM      30.04R
MORA           CLEAR     27  16  63 SW5       30.05R WCI  21
CAMBRIDGE      CLEAR     27  14  59 CALM      30.02R
RUSH CITY      CLEAR     26  15  63 CALM      30.03R
MOOSE LAKE     CLEAR     23  14  68 N3        30.01R
HINCKLEY       FAIR      27  16  63 CALM      30.02R
CLOQUET        CLOUDY    19  12  73 NE3       30.01R
MCGREGOR       CLEAR     25  16  68 CALM      30.01S
$$
MNZ071>073-080-081-089-090-097-098-260000-
   Southwest Minnesota

CITY           SKY/WX    TMP DP  RH WIND       PRES   REMARKS
MONTEVIDEO     CLOUDY    28  28 100 CALM      30.04F
GRANITE FALLS  CLOUDY    30  27  88 CALM      30.05F
CANBY          CLOUDY    29  26  88 CALM      30.03F
MARSHALL       CLOUDY    28  23  80 NW5       30.05S WCI  23
REDWOOD FALLS  CLOUDY    30  23  75 CALM      30.04R
OLIVIA         CLOUDY    28  25  86 CALM      30.04S
PIPESTONE      CLOUDY    32  28  86 W5        30.00F WCI  27
WINDOM         CLOUDY    28  27  93 CALM      30.03R
WORTHINGTON    CLOUDY    30  27  86 NW6       30.03S WCI  24
JACKSON        CLOUDY    28  27  93 N3        30.03S
TRACY          CLOUDY    29  28  96 NW3       30.04R
SLAYTON        CLOUDY    28  27  97 CALM      30.03R
$$
MNZ065>067-074>077-082>085-091>093-260000-
   South Central Minnesota

CITY           SKY/WX    TMP DP  RH WIND       PRES   REMARKS
MANKATO        CLOUDY    27  18  69 NE6       30.04S WCI  20
NEW ULM        MOCLDY    27  19  74 CALM      30.05R
FAIRMONT       MOCLDY    28  19  69 N7        30.03S WCI  21
GLENCOE        CLEAR     26  19  75 CALM      30.04R
FARIBAULT      CLOUDY    23  18  80 CALM      30.05R
OWATONNA       CLOUDY    23  18  80 CALM      30.03R
WASECA         CLOUDY    25  19  80 CALM      30.05R
ALBERT LEA     CLOUDY    25  21  86 N3        30.02R
$$
MNZ078>079-086>088-094>096-260000-
   Southeast Minnesota

CITY           SKY/WX    TMP DP  RH WIND       PRES   REMARKS
ROCHESTER      CLOUDY    25  17  72 NE5       30.00S WCI  19
RED WING       CLOUDY    25  16  68 CALM      30.04S
STANTON        CLOUDY    25  17  72 N5        30.04R WCI  19
DODGE CENTER   CLOUDY    25  18  74 N3        30.00F
WINONA         CLEAR     28  18  64 E5        30.04F WCI  23
AUSTIN         CLOUDY    25  19  80 N5        30.01S WCI  19
PRESTON        CLOUDY    25  18  74 NE6       30.00S WCI  18
$$
ABBREVIATIONS USED IN REMARKS
   TC - TEMPERATURES IN CELSIUS
  WCI - WIND CHILL INDEX
   HX - HEAT INDEX
  VSB - VISIBILITY
$$


USA.gov is the U.S. government's official web portal to all federal, state and local government web resources and services.